Location: Unspecified
(0.0000°N, 0.0000°E)
Time: 07:06:49
(UTC+01:00)

Daily predictions for brighter satellites

Satellite Brightness Start Highest point End
(mag) Time Altitude Azimuth Time Altitude Azimuth Time Altitude Azimuth
Ariane 42L R/B 2.6 19:01:35 10° WNW 19:04:11 63° NNE 19:11:39 10° E
ARIANE 5 R/B 2.6 19:02:26 10° W 19:05:21 78° N 19:19:04 10° E
ALOS 3.5 19:07:03 10° SE 19:10:34 21° ENE 19:14:03 10° NNE
Cosmos 2346 Rocket 4.5 19:04:44 10° N 19:10:56 79° E 19:17:12 10° S
Ariane Rocket 4.1 19:14:07 10° S 19:19:03 50° WSW 19:23:57 10° NNW
Cosmos 1763 Rocket 4.1 19:16:07 10° NNE 19:20:37 31° ENE 19:25:05 10° SE
SMAP 4.3 19:16:24 10° S 19:20:52 47° WSW 19:25:19 10° NNW
Palapa 6 Rocket 4.1 19:16:30 10° WSW 19:22:03 64° NNW 19:28:34 11° ENE
Palapa B4 Rocket 3.4 19:16:16 10° WNW 19:22:20 77° SSW 19:26:27 10° ESE
Cosmos 968 Rocket 3.4 19:21:54 10° S 19:27:01 86° ESE 19:32:09 10° NNE
Delta 142 3.8 19:22:15 10° WSW 19:27:49 86° NNW 19:31:37 14° ENE
Cosmos 1814 Rocket 4.2 19:23:56 10° N 19:29:04 48° ENE 19:34:08 10° SSE
NOSS 3-1 (C) 3.9 19:29:48 10° S 19:34:45 33° ESE 19:38:26 16° ENE
OAO 2 Rocket 4.0 19:31:59 10° NNW 19:36:37 34° NE 19:40:20 15° E
Cosmos 1943 Rocket 3.4 19:37:22 10° SSE 19:41:29 21° ESE 19:43:16 18° E
SPOT 3 Rocket 3.5 19:36:36 10° SSE 19:41:45 63° ENE 19:46:54 10° N
H-2A R/B 4.0 19:40:28 10° SSW 19:45:17 47° SE 20:01:06 20° ENE
H-2A R/B 4.0 19:40:28 10° SSW 19:45:18 47° SE 20:01:05 20° ENE
H-2A R/B 4.0 19:40:28 10° SSW 19:45:18 47° SE 20:01:07 20° ENE
Cosmos 1441 Rocket 4.5 19:41:31 10° SSW 19:45:20 45° W 19:49:09 10° NNW
NOAA 12 4.0 19:44:54 10° SSE 19:50:12 68° ENE 19:55:28 10° N
Star 37E S/N 40089 3.9 19:48:48 10° SW 19:50:37 52° SSE 19:51:08 40° E
Cosmos 1812 3.8 19:47:56 10° SSE 19:51:00 25° E 19:51:00 25° E
Okean 2 Rocket 3.4 19:47:51 10° NNE 19:52:08 44° E 19:56:25 10° SSE
BREEZE-M DEB (TANK) 4.0 19:50:45 10° N 19:51:22 13° N 19:51:22 13° N
Cosmos 841 Rocket 3.5 19:49:01 10° N 19:54:08 56° ENE 19:59:14 10° SSE
Cosmos 2084 Rocket 3.5 19:49:35 10° SSW 19:54:19 88° ESE 19:57:21 21° NNE
USA 229 DEB 4.2 19:47:48 10° SW 19:54:23 56° WNW 20:00:56 10° N
USA 229 4.2 19:47:54 10° SW 19:54:29 57° WNW 20:01:03 10° N
NOSS 3-1 (A) 3.8 19:53:43 10° S 19:58:49 36° ESE 20:00:34 29° ENE
Cosmos 1633 3.1 19:55:52 10° NNW 19:59:27 59° W 20:03:04 10° S
Cosmos 1674 Rocket 3.4 19:56:39 10° S 20:01:07 78° E 20:04:34 16° N
Intelsat 5-3 Rocket 3.0 20:03:48 10° SW 20:05:18 22° S 20:05:18 22° S
H-2A R/B 2.9 20:03:04 10° SSE 20:06:52 48° E 20:06:55 48° ENE
FUSE 4.3 20:06:24 10° WNW 20:11:42 63° SSW 20:15:14 21° SE
Sylda 5 4.2 19:31:18 10° W 20:11:55 67° S 20:15:32 27° ESE
Okean 3 3.3 20:09:51 10° S 20:14:05 77° E 20:15:12 47° NNE
Cosmos 2279 Rocket 4.5 20:08:32 10° SSE 20:14:08 36° E 20:14:28 36° E
ISS -1.4 20:14:00 10° W 20:16:14 17° NW 20:17:23 15° NNW
ARIANE 5 DEB (SYLDA) 2.7 20:14:27 10° W 20:19:35 56° SSW 20:19:35 56° SSW
Cosmos 1634 Rocket 3.9 20:14:17 10° S 20:20:30 86° E 20:25:12 18° N
Cosmos 1378 Rocket 3.3 20:18:32 10° S 20:22:50 75° E 20:22:56 75° E
Cosmos 1602 4.2 20:27:09 42° NW 20:28:11 60° W 20:32:01 10° S
Ariane H10+ 3.9 20:33:47 10° WSW 20:38:41 75° S 20:45:22 34° E
Ariane H10+ 3.9 20:33:47 10° WSW 20:38:41 75° S 20:45:23 34° E
ARIANE 5 DEB (SYLDA) 3.3 20:35:36 10° W 20:39:14 83° N 20:40:44 57° ENE
MOS 1-B Rocket 4.0 20:34:38 10° SSE 20:40:38 75° ENE 20:47:32 10° N
ARIANE 5 DEB (SYLDA) 4.3 20:37:31 10° WSW 20:40:54 29° SW 20:40:54 29° SW
Cosmos 2369 Rocket 3.4 20:39:07 10° SW 20:44:20 38° WNW 20:47:23 22° NNW
Nadezhda 4 Rocket 4.0 20:41:38 15° N 20:46:48 73° W 20:52:56 10° S
ATLAS 2AS CENTAUR RB 3.9 20:44:02 10° NW 20:46:10 14° NW 20:46:10 14° NW
Meteor 1-11 Rocket 4.2 20:51:45 22° NNW 20:55:19 56° W 21:00:47 10° S
Ariane H10+ 3.6 20:47:32 10° W 20:55:29 51° SSW 20:55:29 51° SSW
Delta 202 3.9 20:53:30 10° WSW 20:59:02 66° WSW 20:59:02 66° WSW
Cosmos 1092 Rocket 4.2 21:02:40 65° SSW 21:02:40 65° SSW 21:07:55 10° S
Centaur D-1AR AC-40 3.2 20:34:31 10° WNW 21:01:42 64° NNE 21:01:54 64° NNE
ARIANE 3 DEB 4.3 20:59:09 10° W 21:06:32 55° WSW 21:06:32 55° WSW
ARIANE 5 DEB (SYLDA) 4.4 21:03:25 10° W 21:11:49 54° SW 21:11:49 54° SW
Ariane H10+ 3.8 21:12:41 10° W 21:20:16 31° NW 21:20:16 31° NW
Cosmos 1943 Rocket 4.0 21:20:31 10° SW 21:24:51 25° WNW 21:24:51 25° WNW
